Cara Daftar Sbobet

Jackpot

Texas Poker Multi Jackpot System

Kini Telah hadir Jackpot SUPER ROYAL FLUSH

Kini Telah hadir Jackpot 2000 (khusus table VIP keatas).

Ikutilah global jackpot yang tersedia di system kami, dengan system jackpot terbaru dan pertama di indonesia, anda dapat membeli jackpot dengan harga 100 rupiah saja dan menangkan hadiahnya hingga puluhan juta rupiah.

Jackpot bukanlah suatu keharusan untuk dibeli, namun kami memberikan suatu fitur tambahan untuk member tercinta dari www.merdekapoker.com.

Terdapat tiga pilihan harga jackpot yang bisa anda beli yaitu :100,500,1000 dan 2000(khusus table VIP Keatas) rupiah.

Hadiah dari Multi jackpot system www.merdekapoker.com

  1. full house x 10 harga jackpot yang anda beli.
      (contoh:anda membeli 1000 maka:1000 X10 = 10.000)
  2. four of kind x 250 harga jackpot yang anda beli
      (contoh:anda membeli 1000 maka:1000 X250 = 250.000)
  3. Straight flush x 1200
      (contoh:anda membeli 1000 maka:1000 X1200 = 1.200.000)
  4. Royal flush x 10000 harga jackpot yang anda beli
      (contoh:anda membeli 1000 maka:1000 X10000 = 10.000.000)
  5. SUPER ROYAL FLUSH x 30000 harga jackpot yang anda beli
      (contoh:anda membeli 1000 maka:1000 X30000 = 30.000.000)

Kondisi kartu

  1. full house adalah kondisi kartu dimana kartu anda dan kartu tengah dengan total 7 kartu bisa mendapatkan nilai 5 kartu dengan kombinasi 1 tris(three of kind) dan 1 pair, contoh 3 kartu 10 dan 2 kartu 5
  2. Four of kind adalah kondisi kartu dimana kartu anda dan kartu tengah dengan total 7 kartu bisa mendapatkan nilai 5 kartu dengan kombinasi 4 kartu yang sama jumlah dan 1 kartu apapun juga contoh anda mendapatkan 4 buah kartu angka 3 dan 1 kartu apapun.
  3. Staright flush adalah kondisi kartu dimana kartu anda dan kartu tengah dengan total 7 kartu bisa mendapatkan nilai 5 kartu dengan kombinasi seri / staright dengan kembang yang sama contoh : urutan kartu dari angka 5, 6, 7, 8 , 9 10 dengan kembang yg sama misalnya as hati
  4. Royal flush adalah kondisi kartu dimana kartu anda dan kartu tengah dengan total 7 kartu bisa mendapatkan nilai 5 kartu dengan kombinasi seri / staright dengan kembang yang sama tetapi kartu tersebut haruslah dimulai dari 10. contoh 10, Queen, Jack, King dan aces dengan kembang yang sama
  5. Super Royal flush adalah kondisi kartu dimana Kedua kartu anda digabung dengan 3 kartu pertama meja haruslah royal flush. contoh kartu anda 10,Queen kembang sama dan 3 kartu pertama meja adalah Jack, King dan aces dengan kembang yang sama

Demikian adalah penjelasan dari Multi Jackpot www.merdekapoker.com terima kasih dan selamat bermain salam hoki dari kami

Texas Poker Jackpot Winner

TOP SUPER ROYAL FLUSH
No.TanggalNamaPriceWin
123/09 00:01ANTY69Super Royal flush6,000,000
222/09 23:57ACUY456Super Royal flush6,000,000
322/09 22:37HEBOH_9Super Royal flush6,000,000
422/09 21:03SAMSUDIN99Super Royal flush6,000,000
522/09 19:41A4627HGSuper Royal flush3,000,000
TOP ROYAL FLUSH
No.TanggalNamaPriceWin
123/09 07:03JAKA009Royal flush5,000,000
223/09 06:55ABDUL93Royal flush2,000,000
323/09 06:27BASWIR13Royal flush1,000,000
423/09 05:31SF2687Royal flush5,000,000
523/09 05:28MODAL88Royal flush10,000,000
TOP STRAIGHT FLUSH
No.TanggalNamaPriceWin
123/09 07:09Z4H12A08Straight Flush600,000
223/09 07:05TR2000Straight Flush1,200,000
323/09 07:04UTOYO86Straight Flush240,000
423/09 07:04BALUMUTStraight Flush240,000
523/09 07:02DAE3ABC0Straight Flush600,000
LATEST JACKPOT
No.TanggalNamaPriceWin
123/09 07:10ADIYATFull House10,000
223/09 07:10MURAD90Full House20,000
323/09 07:10HARTAP84Full House10,000
423/09 07:10SP23MP1B05Full House2,000
523/09 07:10HHX3TYOFOJFull House500
623/09 07:10BEBIE4YURAFull House20,000
723/09 07:09TAWK99QQFull House2,000
823/09 07:09TATTIT0TFull House10,000
923/09 07:09AISYAH68Full House1,000
1023/09 07:09INTANN1111Full House2,000
1123/09 07:09WEDUS1Full House20,000
1223/09 07:09RITAOKEFull House2,000
1323/09 07:09BONGBONG22Full House1,000
1423/09 07:09ICAN101Full House5,000
1523/09 07:09AMBON54321Full House2,000
1623/09 07:09Z4H12A08Straight Flush600,000
1723/09 07:09SRTLPEPSIFull House5,000
1823/09 07:09SMEAL88Full House20,000
1923/09 07:09S1TIREMIFour Of A Kind50,000
2023/09 07:09DENI88_Full House10,000
2123/09 07:09DAUN177Full House20,000
2223/09 07:09KERIHI88Full House10,000
2323/09 07:09MBACH91Full House1,000
2423/09 07:09NALAHOKI88Full House5,000
2523/09 07:09MIZAN09Full House5,000
2623/09 07:09S1DOOYFull House1,000
2723/09 07:09SINYO_09Full House2,000
2823/09 07:09ZIDAN74Full House2,000
2923/09 07:09MAMAT13Full House2,000
3023/09 07:09WOLES67Full House5,000
3123/09 07:09REYNALDO21Full House1,000
3223/09 07:09PAMANKUYFull House20,000
3323/09 07:09DHIRA26Full House10,000
3423/09 07:09ZOLDICK77Full House5,000
3523/09 07:09OWOBFull House1,000
3623/09 07:09MARCELLO77Full House1,000
3723/09 07:09G4L4N66QIUFull House20,000
3823/09 07:09TATTIT0TFull House10,000
3923/09 07:09POYMOY18Full House500
4023/09 07:09SARYRUDYFull House10,000
4123/09 07:08PCK4HARIADIFull House1,000
4223/09 07:08AING1503Full House20,000
4323/09 07:08JUMPALAGI9Full House5,000
4423/09 07:08FELA9999Full House2,000
4523/09 07:08SAGARA90Full House2,000
4623/09 07:08OONOONPAYFull House2,000
4723/09 07:08D3W4_C4BULFull House1,000
4823/09 07:08PKTEMPOS23Full House2,000
4923/09 07:08PREMAN4ULUFull House1,000
5023/09 07:08LIELY4NFull House2,000

Domino Multi Jackpot System

Ikutilah global jackpot yang tersedia di system kami, dengan system jackpot terbaru dan pertama di indonesia, anda dapat membeli jackpot dengan harga 100 rupiah saja dan menangkan hadiahnya hingga puluhan juta rupiah.

Jackpot bukanlah suatu keharusan untuk dibeli, namun kami memberikan suatu fitur tambahan untuk member tercinta dari www.merdekapoker.com.

Terdapat tiga pilihan harga jackpot yang bisa anda beli yaitu :100,500 dan 1000 rupiah.

Hadiah dari Multi jackpot system www.merdekapoker.com

  1. Murni Kecil x 50 harga jackpot yang anda beli.
      (contoh:anda membeli 1000 maka:1000 X 50 = 50.000)
  2. Murni Besar x 50 harga jackpot yang anda beli
      (contoh:anda membeli 1000 maka:1000 X 50 = 50.000)
  3. BALAK x 100 harga jackpot yang anda beli
      (contoh:anda membeli 1000 maka:1000 X 100 = 100.000)
  4. ENAM DEWA x 6666 harga jackpot yang anda beli
      (contoh:anda membeli 1000 maka:1000 X 6666 = 6.666.000)

Demikian adalah penjelasan dari Multi Jackpot www.merdekapoker.com terima kasih dan selamat bermain salam hoki dari kami

Domino Jackpot Winner

TOP ENAM DEWA
No.TanggalNamaPriceWin
123/09 06:35LAPES88murni enam3,333,000
223/09 05:21FAHMI_333murni enam666,600
323/09 04:24JINNALLEmurni enam3,333,000
423/09 03:12KEROCO2424murni enam3,333,000
523/09 02:29YELIS94murni enam3,333,000
TOP BALAK
No.TanggalNamaPriceWin
123/09 07:07AYLGKS9TF7balak50,000
223/09 07:03THOM420balak100,000
323/09 06:59AOOOOObalak50,000
423/09 06:57OEZANbalak100,000
523/09 06:53EDWINRAMADbalak100,000
LATEST JACKPOT
No.TanggalNamaPriceWin
123/09 07:09MAYA233lucky9925,000
223/09 07:07AYLGKS9TF7balak50,000
323/09 07:07MAHADEWA_murni kecil25,000
423/09 07:05HAER333murni besar50,000
523/09 07:04ZOAM27murni besar50,000
623/09 07:03THOM420balak100,000
723/09 07:02HAWARI1murni kecil5,000
823/09 07:02CC34A800murni kecil5,000
923/09 07:00ADMINNEWmurni besar50,000
1023/09 06:59AOOOOObalak50,000
1123/09 06:58ADI8900murni kecil5,000
1223/09 06:58WJRD60GZJBlucky9925,000
1323/09 06:57OEZANbalak100,000
1423/09 06:57BRSmurni kecil50,000
1523/09 06:54ARDYAN1932murni besar25,000
1623/09 06:54BANGBOBmurni kecil50,000
1723/09 06:53EDWINRAMADbalak100,000
1823/09 06:53IWANSUNARYmurni besar50,000
1923/09 06:52SRONTO73murni kecil25,000
2023/09 06:51WARIIIK99balak50,000
2123/09 06:50XXXX92murni kecil25,000
2223/09 06:50GIANAmurni besar50,000
2323/09 06:48PAK_SIAPmurni kecil50,000
2423/09 06:48C1BELmurni kecil50,000
2523/09 06:48PAK_SIAPmurni kecil50,000
2623/09 06:48QIU_SEKOPmurni kecil50,000
2723/09 06:46GONTOT63murni besar5,000
2823/09 06:46SANLENbalak10,000
2923/09 06:45LAPES88murni besar25,000
3023/09 06:45IGU15murni kecil50,000
3123/09 06:45RIKI_61balak100,000
3223/09 06:44EHBANGBENGmurni besar5,000
3323/09 06:44CJ2HN0RV8Wmurni besar5,000
3423/09 06:44BERDARAmurni kecil50,000
3523/09 06:43DOLKEM12murni besar50,000
3623/09 06:42TRM423balak50,000
3723/09 06:40RENGKUH_CUmurni kecil50,000
3823/09 06:40A39BE05Dmurni besar5,000
3923/09 06:39MRSING23balak50,000
4023/09 06:39SELESmurni kecil25,000
4123/09 06:39HARDI88murni kecil5,000
4223/09 06:39TOMGEMBUSmurni kecil25,000
4323/09 06:38QQQQ99murni kecil25,000
4423/09 06:38MUHIDIN86murni besar50,000
4523/09 06:38MAHADEWA_murni kecil25,000
4623/09 06:38KOMINGmurni besar5,000
4723/09 06:38TEKNO_IDmurni besar50,000
4823/09 06:38PAK_SIAPmurni kecil50,000
4923/09 06:37WAHYUDITRIbalak100,000
5023/09 06:35DARWIET16murni kecil50,000

Ceme Multi Jackpot System

Jackpot dilihat dari gabungan kartu pemain dengan kartu bandar. Bandar harus membeli jackpot sebanyak jumlah player yang sedang duduk. Sebagai contoh bila terdapat 3 pemain duduk bermain, dan bandar memutuskan untuk membeli jackpot Rp 1.000, maka pada periode tersebut bandar akan membeli jackpot sebanyak 3xRp1.000 = Rp3.000.

Jackpot bukanlah suatu keharusan untuk dibeli, namun kami memberikan suatu fitur tambahan untuk member tercinta dari www.merdekapoker.com.

Terdapat tiga pilihan harga jackpot yang bisa anda beli yaitu :100,500 dan 1000 rupiah.

Hadiah dari Multi jackpot system www.merdekapoker.com

  1. Murni Kecil x 50 harga jackpot yang anda beli.
      (contoh:anda membeli 1000 maka:1000 X 50 = 50.000)
  2. Murni Besar x 50 harga jackpot yang anda beli
      (contoh:anda membeli 1000 maka:1000 X 50 = 50.000)
  3. BALAK x 200 harga jackpot yang anda beli
      (contoh:anda membeli 1000 maka:1000 X 200 = 200.000)
  4. ENAM DEWA x 6666 harga jackpot yang anda beli
      (contoh:anda membeli 1000 maka:1000 X 6666 = 6.666.000)

Demikian adalah penjelasan dari Multi Jackpot www.merdekapoker.com terima kasih dan selamat bermain salam hoki dari kami

Ceme Jackpot Winner

TOP ENAM DEWA
No.TanggalNamaPriceWin
123/09 06:50CHELBYNE77murni enam6,666,000
223/09 06:41FASTABIQmurni enam6,666,000
323/09 05:16FIXCELLmurni enam666,600
423/09 05:16PEJUANG252murni enam3,333,000
523/09 04:59ETOT11murni enam6,666,000
TOP BALAK
No.TanggalNamaPriceWin
123/09 07:08FENDY08balak200,000
223/09 07:07AJINbalak20,000
323/09 07:06FENDY08balak200,000
423/09 07:06MASBONY85balak200,000
523/09 07:06CIBI0402balak20,000
LATEST JACKPOT
No.TanggalNamaPriceWin
123/09 07:09DWI39murni besar5,000
223/09 07:09W4LETK41murni besar5,000
323/09 07:09MASBONY85murni besar50,000
423/09 07:09BLU234murni kecil50,000
523/09 07:08ADHEJAYAmurni besar50,000
623/09 07:08MONIICA7murni besar25,000
723/09 07:08FENDY08balak200,000
823/09 07:08TITAN830murni besar25,000
923/09 07:08AGSC899999murni besar50,000
1023/09 07:07PEPEXBLACKmurni kecil50,000
1123/09 07:07JNASP99murni kecil5,000
1223/09 07:07F3BR14NSY4murni besar50,000
1323/09 07:07AJINbalak20,000
1423/09 07:07A53IZ23murni kecil50,000
1523/09 07:07GOAL00murni kecil5,000
1623/09 07:06IPUTPUTRImurni kecil25,000
1723/09 07:06KUKUMmurni kecil50,000
1823/09 07:06FENDY08balak200,000
1923/09 07:06BLU234murni besar50,000
2023/09 07:06ISA154murni besar50,000
2123/09 07:06MASBONY85balak200,000
2223/09 07:06CIBI0402balak20,000
2323/09 07:05KASTO88murni besar25,000
2423/09 07:05DANHILmurni besar25,000
2523/09 07:05HEYKImurni besar50,000
2623/09 07:05ALX19murni kecil50,000
2723/09 07:05ZORR00murni kecil25,000
2823/09 07:05DEWAJUDI72balak200,000
2923/09 07:05WINJP6688murni kecil5,000
3023/09 07:05BESTFFUNYmurni kecil50,000
3123/09 07:05MASBONY85murni besar50,000
3223/09 07:05CICAK6789murni besar50,000
3323/09 07:05BALUZA24murni besar50,000
3423/09 07:04PRIVAT_279murni kecil50,000
3523/09 07:04HOKKY909Omurni besar25,000
3623/09 07:04TAQRINmurni kecil50,000
3723/09 07:04FA21EE8Bmurni kecil25,000
3823/09 07:04K3SYY999murni kecil50,000
3923/09 07:04YUNUS35murni kecil50,000
4023/09 07:04CAPEL1murni besar5,000
4123/09 07:04PORTUGAL21murni besar50,000
4223/09 07:04TOTTOmurni besar5,000
4323/09 07:04ALCAPUNOmurni kecil50,000
4423/09 07:04TAQRINbalak200,000
4523/09 07:03B4DIJOKERmurni besar50,000
4623/09 07:03B4DIJOKERmurni besar50,000
4723/09 07:03CIWEWEHHOKmurni besar50,000
4823/09 07:03AVANZA18murni kecil25,000
4923/09 07:03BENDRObalak20,000
5023/09 07:03DP9066MLRbalak200,000